Tracking 22458 objects as of 2-Mar-2021
HD Live streaming from Space Station
objects crossing your sky now

BREEZE-M DEB

Track BREEZE-M DEB now!
10-day predictions


NORAD ID: 38884
Int'l Code: 2012-044R
Perigee: 274.0 km
Apogee: 4,173.4 km
Inclination: 50.0 °
Period: 132.2 minutes
Semi major axis: 8594 km
RCS: 0.2656 m2 (medium)
Launch date: August 6, 2012
Source: Commonwealth of Independent States (former USSR) (CIS)
Launch site: TYURATAM MISSILE AND SPACE COMPLEX (TTMTR)

Note: This is SATELLITE DEBRIS
aabbcc
Your satellite tracking list
Your tracking list is empty




NASA's NSSDC Master Catalog

Two Line Element Set (TLE):
1 38884U 12044R   21060.40611074  .00011032  32202-5  33058-3 0  9997
2 38884  50.0127 321.0110 2268502  84.4077 300.9003 10.89576309324788
Source of the keplerian elements: AFSPC